Regional Weather Roundup
Issued by NWS

Home | Current Version | Previous Version | Text Only | Print | Product List | Glossary Off
Versions: 1 2 3 4 5 6 7 8 9 10 11 12 13 14 15 16 17 18 19 20 21 22 23 24 25 26 27 28 29 30 31 32 33 34 35 36 37 38 39 40 41 42 43 44 45 46 47 48 49 50

000
ASUS45 KBOU 300607
RWRCO

WEATHER ROUNDUP FOR COLORADO
NATIONAL WEATHER SERVICE DENVER/BOULDER CO
1200 AM MDT MON MAR 30 2015

NOTE: "FAIR" INDICATES FEW OR NO CLOUDS BELOW 12000 FEET WITH NO
SIGNIFICANT WEATHER AND/OR OBSTRUCTIONS TO VISIBILITY.

COZ001>005-013-030-031-300700-
...NORTHWEST COLORADO...

CITY           SKY/WX    TMP DP  RH WIND       PRES   REMARKS
CRAIG          CLEAR     32  21  64 CALM      30.24S
HAYDEN         CLEAR     39  18  41 SE3       30.24S
MEEKER         CLEAR     39  22  50 SE6       30.26R
MOUNT WERNER   NOT AVBL
STEAMBOAT SPGS CLEAR     37  20  50 CALM      30.26R
WALDEN         PTCLDY    32  18  55 S3        30.28R
$$

COZ006>008-011-300700-
...WEST CENTRAL VALLEYS...

CITY           SKY/WX    TMP DP  RH WIND       PRES   REMARKS
GRAND JUNCTION CLEAR     41  13  31 E3        30.15S
MONTROSE       CLEAR     49  17  28 SE13      30.23S
EAGLE          CLEAR     41  16  36 CALM      30.28R
RIFLE          CLEAR     47  12  24 SE8       30.21R
DELTA          CLEAR     48  17  28 NE6       30.20R
NUCLA          CLEAR     45  10  24 E13       30.26S
$$

COZ017>023-064>068-300700-
...SOUTHWEST COLORADO...

CITY           SKY/WX    TMP DP  RH WIND       PRES   REMARKS
DURANGO        MOCLDY    45  13  27 N6        30.25R
CORTEZ         CLEAR     39  15  37 NE8       30.23S
PAGOSA SPRINGS MOCLDY    42  20  41 CALM      30.31S
TELLURIDE      NOT AVBL
WOLF CREEK PAS PTCLDY    32  10  40 SW9       30.51F WCI  24
$$

COZ009-010-012-014-032>034-037-058>063-300700-
...CENTRAL COLORADO...

CITY           SKY/WX    TMP DP  RH WIND       PRES   REMARKS
ASPEN          PTCLDY    38  17  42 S8        30.31R
BUENA VISTA    PTCLDY    32  21  65 W6        30.33R WCI  26
COPPER MTN     CLEAR     36   1  23 SW17G23   30.46S
BERTHOUD PASS  FAIR      28  21  74 W28G35    30.44F WCI  13
COTTONWOOD PAS PTCLDY    41   9  26 N3        30.38S
GUNNISON       PTCLDY    36  12  38 CALM      30.35R
KREMMLING      PTCLDY    32  19  59 N3        30.30R
LEADVILLE      CLEAR     25  10  53 NE7       30.37S WCI  17
SALIDA         PTCLDY    43  19  38 SW5       30.38S
SUNLIGHT       CLEAR     39   9  28 CALM      30.46R
WILKERSON PASS CLEAR     32  10  40 W7        30.44S WCI  26
$$

COZ069>075-300700-
...SAN LUIS VALLEY/SANGRE DE CRISTO MOUNTAINS...

CITY           SKY/WX    TMP DP  RH WIND       PRES   REMARKS
ALAMOSA        PTCLDY    49  26  41 S15       30.29S
LA VETA PASS   PTCLDY    39  25  56 SW9G18    30.39S
SAGUACHE       NOT AVBL
$$

COZ035-036-038>040-300700-
...NORTHERN COLORADO FRONT RANGE...

CITY           SKY/WX    TMP DP  RH WIND       PRES   REMARKS
DENVER INTL AP PTCLDY    50  25  37 SW15      30.16R
DMNS CITY PARK   N/A     48  27  44 SW1       30.15S
AURORA         NOT AVBL
FRONT RANGE AP CLEAR     52  27  37 SW12      30.16S
ERIE MUNI ARPT CLEAR     40  30  67 CALM      30.15S
BOULDER MUN AP CLEAR     46  28  49 CALM      30.15R
CENTENNIAL     PTCLDY    48  25  40 S12       30.17S
BROOMFIELD     CLEAR     45  28  53 SW3       30.17R
FORT COLLINS   CLEAR     46  25  42 N3        30.16S
LONGMONT       CLEAR     47  28  48 NW10      30.16S
$$

COZ041-046-047-076>085-087-088-300700-
...PIKES PEAK/PALMER DIVIDE AND SOUTHERN FOOTHILLS...

CITY           SKY/WX    TMP DP  RH WIND       PRES   REMARKS
COLO. SPRINGS  CLEAR     45  22  40 SE8       30.25F
A. F. ACADEMY  CLEAR     34  23  65 NW8       30.25S WCI  27
ELLICOTT       CLEAR    N/A N/A N/A S13       30.23F
FALCON         CLEAR     39  21  47 SW7       30.27F
FORT CARSON    CLEAR     46  23  40 SW6       30.23S
LIMON          CLEAR     39  23  52 S8        30.21S
MONUMENT HILL  CLEAR     41  21  45 S17       30.23S
TRINIDAD       MOCLDY    56  29  35 W8        30.21S
$$

COZ042>045-048>051-090-091-300700-
...NORTHEAST COLORADO...

CITY           SKY/WX    TMP DP  RH WIND       PRES   REMARKS
GREELEY ARPT   CLEAR     39  18  41 N3        30.13S
AKRON          PTCLDY    45  23  42 S13       30.15F
BURLINGTON     PTCLDY    41  22  46 S13       30.19F
WRAY           CLEAR     47  20  34 S9        30.16F
STERLING       PTCLDY    43  27  52 S10       30.13F
HOLYOKE        NOT AVBL
FORT MORGAN    PTCLDY   N/A N/A N/A SE5       30.16S
$$

COZ086-089-092>099-300700-
...SOUTHEAST COLORADO...

CITY           SKY/WX    TMP DP  RH WIND       PRES   REMARKS
PUEBLO         CLEAR     50  21  32 NE7       30.19S
LA JUNTA       PTCLDY    48  22  35 SE9       30.18F
LAMAR          CLEAR     49  24  37 S13       30.18F
SPRINGFIELD      N/A     43  25  49 S12       30.23F
$$



USA.gov is the U.S. government's official web portal to all federal, state and local government web resources and services.